SAS2345 EFHK-ESSA

Flight info

Callsign SAS2345
Flight time 0h 47m
Altitude 32000
Route ADIVO Y365 POGOK DCT RUNGA N872 XILAN
Aircraft A20N/M-SDE2E3FGHIRWXY/LB1

Departure

Time 2026-04-26 11:28
Airport Helsinki Vantaa Airport (EFHK)

Arrival

Time 2026-04-26 12:16
Airport Stockholm-Arlanda Airport (ESSA)
Time Latitude Longitude Altitude Speed Heading
2026-04-26 11:04 60.31442 24.95971 167 ft 0 kts 342°
2026-04-26 11:14 60.31436 24.95975 167 ft 3 kts 342°
2026-04-26 11:15 60.31418 24.95987 167 ft 3 kts 342°
2026-04-26 11:15 60.31400 24.95998 167 ft 3 kts 339°
2026-04-26 11:15 60.31383 24.96012 167 ft 3 kts 337°
2026-04-26 11:15 60.31366 24.96029 167 ft 3 kts 313°
2026-04-26 11:16 60.31357 24.96062 167 ft 3 kts 273°
2026-04-26 11:16 60.31357 24.96069 167 ft 0 kts 265°
2026-04-26 11:18 60.31357 24.96061 167 ft 1 kts 265°
2026-04-26 11:18 60.31356 24.96039 167 ft 2 kts 265°
2026-04-26 11:18 60.31354 24.96004 167 ft 3 kts 265°
2026-04-26 11:18 60.31346 24.95984 167 ft 3 kts 214°
2026-04-26 11:19 60.31291 24.95894 166 ft 16 kts 228°
2026-04-26 11:19 60.31211 24.95712 166 ft 18 kts 227°
2026-04-26 11:19 60.31169 24.95520 166 ft 12 kts 291°
2026-04-26 11:19 60.31219 24.95412 166 ft 11 kts 319°
2026-04-26 11:20 60.31279 24.95308 166 ft 12 kts 317°
2026-04-26 11:20 60.31319 24.95228 166 ft 13 kts 315°
2026-04-26 11:20 60.31410 24.95055 166 ft 14 kts 311°
2026-04-26 11:20 60.31477 24.94990 166 ft 8 kts 14°
2026-04-26 11:21 60.31532 24.95088 166 ft 17 kts 46°
2026-04-26 11:21 60.31605 24.95266 166 ft 14 kts 44°
2026-04-26 11:21 60.31669 24.95402 166 ft 12 kts 41°
2026-04-26 11:21 60.31729 24.95529 166 ft 13 kts 47°
2026-04-26 11:22 60.31791 24.95663 166 ft 14 kts 47°
2026-04-26 11:22 60.31890 24.95881 167 ft 25 kts 47°
2026-04-26 11:22 60.32006 24.96141 167 ft 25 kts 45°
2026-04-26 11:22 60.32119 24.96393 167 ft 24 kts 44°
2026-04-26 11:23 60.32232 24.96637 167 ft 24 kts 45°
2026-04-26 11:23 60.32242 24.96732 167 ft 3 kts 134°
2026-04-26 11:23 60.32225 24.96805 167 ft 6 kts 87°
2026-04-26 11:23 60.32233 24.96895 166 ft 4 kts 96°
2026-04-26 11:24 60.32219 24.96934 166 ft 6 kts 145°
2026-04-26 11:24 60.32139 24.97019 166 ft 15 kts 152°
2026-04-26 11:24 60.32035 24.97128 165 ft 23 kts 153°
2026-04-26 11:24 60.31876 24.97291 165 ft 23 kts 153°
2026-04-26 11:25 60.31803 24.97364 165 ft 0 kts 152°
2026-04-26 11:25 60.31730 24.97442 164 ft 27 kts 152°
2026-04-26 11:25 60.31483 24.97696 163 ft 47 kts 152°
2026-04-26 11:25 60.31226 24.97955 162 ft 32 kts 151°
2026-04-26 11:26 60.31029 24.98161 161 ft 32 kts 153°
2026-04-26 11:26 60.30973 24.98270 161 ft 0 kts 110°
2026-04-26 11:26 60.30973 24.98299 161 ft 0 kts 79°
2026-04-26 11:26 60.30973 24.98302 161 ft 0 kts 79°
2026-04-26 11:27 60.30978 24.98339 161 ft 12 kts 73°
2026-04-26 11:27 60.31038 24.98445 161 ft 8 kts 14°
2026-04-26 11:28 60.31073 24.98440 162 ft 11 kts 345°
2026-04-26 11:28 60.31389 24.98128 163 ft 94 kts 335°
2026-04-26 11:28 60.32190 24.97308 390 ft 148 kts 331°
2026-04-26 11:28 60.33069 24.96343 1459 ft 139 kts 327°
2026-04-26 11:29 60.33563 24.94593 2444 ft 160 kts 296°
2026-04-26 11:29 60.33554 24.92055 2929 ft 202 kts 269°
2026-04-26 11:29 60.33166 24.89237 3600 ft 219 kts 262°
2026-04-26 11:29 60.32682 24.86181 4054 ft 235 kts 261°
2026-04-26 11:30 60.32185 24.82995 4192 ft 239 kts 261°
2026-04-26 11:30 60.31855 24.80836 4110 ft 238 kts 262°
2026-04-26 11:30 60.31223 24.76571 4719 ft 240 kts 262°
2026-04-26 11:30 60.30755 24.73361 5759 ft 237 kts 263°
2026-04-26 11:31 60.30294 24.70148 6655 ft 240 kts 262°
2026-04-26 11:31 60.29859 24.66871 7469 ft 241 kts 268°
2026-04-26 11:31 60.29721 24.63533 8328 ft 238 kts 276°
2026-04-26 11:31 60.29715 24.60232 9217 ft 240 kts 278°
2026-04-26 11:32 60.29732 24.56795 10085 ft 244 kts 278°
2026-04-26 11:32 60.29747 24.53365 10937 ft 247 kts 277°
2026-04-26 11:32 60.29760 24.49847 11752 ft 252 kts 276°
2026-04-26 11:32 60.29769 24.46322 12568 ft 256 kts 276°
2026-04-26 11:33 60.29776 24.42697 13414 ft 261 kts 276°
2026-04-26 11:33 60.29782 24.39018 14157 ft 265 kts 275°
2026-04-26 11:33 60.29785 24.35284 14924 ft 267 kts 275°
2026-04-26 11:33 60.29786 24.31525 15664 ft 270 kts 274°
2026-04-26 11:34 60.29786 24.27715 16383 ft 273 kts 274°
2026-04-26 11:34 60.29785 24.23870 17119 ft 276 kts 272°
2026-04-26 11:34 60.29783 24.19980 17858 ft 279 kts 273°
2026-04-26 11:34 60.29781 24.16053 18512 ft 282 kts 272°
2026-04-26 11:35 60.29777 24.12078 19158 ft 284 kts 274°
2026-04-26 11:35 60.29772 24.08068 19793 ft 287 kts 274°
2026-04-26 11:35 60.29767 24.04030 20406 ft 290 kts 274°
2026-04-26 11:35 60.29756 24.01316 20807 ft 293 kts 274°
2026-04-26 11:36 60.29498 23.95771 21583 ft 300 kts 266°
2026-04-26 11:36 60.29135 23.91649 21894 ft 304 kts 264°
2026-04-26 11:36 60.28698 23.87460 21831 ft 306 kts 263°
2026-04-26 11:36 60.28225 23.83256 21806 ft 308 kts 262°
2026-04-26 11:37 60.27740 23.79039 21808 ft 309 kts 262°
2026-04-26 11:37 60.27258 23.74826 21810 ft 309 kts 262°
2026-04-26 11:37 60.26781 23.70618 21811 ft 309 kts 263°
2026-04-26 11:37 60.26308 23.66392 21842 ft 309 kts 263°
2026-04-26 11:38 60.25840 23.62186 22426 ft 306 kts 263°
2026-04-26 11:38 60.25379 23.58062 23486 ft 297 kts 264°
2026-04-26 11:38 60.24930 23.54063 24290 ft 290 kts 264°
2026-04-26 11:38 60.24490 23.50107 24892 ft 290 kts 265°
2026-04-26 11:39 60.24051 23.46125 25407 ft 293 kts 265°
2026-04-26 11:39 60.23609 23.42108 25891 ft 296 kts 265°
2026-04-26 11:39 60.23158 23.38038 26366 ft 299 kts 265°
2026-04-26 11:39 60.22701 23.33933 26832 ft 302 kts 266°
2026-04-26 11:40 60.22235 23.29779 27313 ft 305 kts 266°
2026-04-26 11:40 60.21763 23.25595 27768 ft 308 kts 266°
2026-04-26 11:40 60.21284 23.21373 28233 ft 311 kts 266°
2026-04-26 11:40 60.20799 23.17113 28651 ft 314 kts 266°
2026-04-26 11:41 60.20308 23.12805 29085 ft 317 kts 266°
2026-04-26 11:42 60.16711 22.81686 31454 ft 338 kts 266°
2026-04-26 11:43 60.16170 22.77077 31746 ft 341 kts 266°
2026-04-26 11:43 60.15616 22.72335 31854 ft 350 kts 266°
2026-04-26 11:43 60.15077 22.67698 31860 ft 362 kts 266°
2026-04-26 11:43 60.14493 22.62704 31863 ft 373 kts 265°
2026-04-26 11:44 60.13888 22.57563 31870 ft 385 kts 265°
2026-04-26 11:44 60.13258 22.52260 31870 ft 396 kts 265°
2026-04-26 11:44 60.12609 22.46829 31874 ft 407 kts 265°
2026-04-26 11:44 60.11936 22.41251 31878 ft 412 kts 264°
2026-04-26 11:45 60.10569 22.30109 31886 ft 411 kts 265°
2026-04-26 11:45 60.09190 22.18829 31895 ft 425 kts 265°
2026-04-26 11:46 60.07760 22.07107 31899 ft 438 kts 265°
2026-04-26 11:46 60.06287 21.95297 31910 ft 436 kts 265°
2026-04-26 11:47 60.04813 21.83603 31919 ft 423 kts 265°
2026-04-26 11:47 60.04096 21.77997 31926 ft 411 kts 265°
2026-04-26 11:47 60.03393 21.72473 31926 ft 408 kts 265°
2026-04-26 11:48 60.02017 21.61550 31933 ft 407 kts 266°
2026-04-26 11:48 60.00627 21.50577 31941 ft 407 kts 266°
2026-04-26 11:49 59.99224 21.39647 31942 ft 406 kts 266°
2026-04-26 11:49 59.97753 21.28772 31952 ft 407 kts 265°
2026-04-26 11:50 59.96227 21.17877 31955 ft 406 kts 265°
2026-04-26 11:50 59.94697 21.07028 31963 ft 406 kts 265°
2026-04-26 11:51 59.93422 20.98008 31969 ft 405 kts 265°
2026-04-26 11:51 59.91638 20.85453 31973 ft 401 kts 265°
2026-04-26 11:52 59.90365 20.76592 31978 ft 395 kts 266°
2026-04-26 11:52 59.88866 20.66152 31978 ft 394 kts 266°
2026-04-26 11:53 59.87355 20.55661 31986 ft 393 kts 266°
2026-04-26 11:54 59.85073 20.39981 31991 ft 393 kts 266°
2026-04-26 11:54 59.83421 20.29564 31991 ft 402 kts 259°
2026-04-26 11:55 59.81639 20.19213 32000 ft 390 kts 267°
2026-04-26 11:55 59.80303 20.08885 32006 ft 389 kts 268°
2026-04-26 11:56 59.78893 19.98483 32007 ft 390 kts 266°
2026-04-26 11:56 59.77371 19.88099 32013 ft 391 kts 266°
2026-04-26 11:57 59.75799 19.77751 32018 ft 392 kts 265°
2026-04-26 11:57 59.74263 19.67407 31968 ft 390 kts 267°
2026-04-26 11:57 59.73541 19.62244 31332 ft 391 kts 268°
2026-04-26 11:58 59.72830 19.57018 30701 ft 392 kts 268°
2026-04-26 11:58 59.72120 19.51863 30454 ft 382 kts 269°
2026-04-26 11:58 59.71427 19.46896 30151 ft 375 kts 269°
2026-04-26 11:58 59.70730 19.41887 29669 ft 370 kts 269°
2026-04-26 11:59 59.70050 19.36997 29174 ft 367 kts 269°
2026-04-26 11:59 59.69377 19.32118 28320 ft 371 kts 269°
2026-04-26 11:59 59.68691 19.27127 27480 ft 377 kts 269°
2026-04-26 11:59 59.68000 19.22188 26882 ft 377 kts 268°
2026-04-26 12:00 59.67295 19.17214 26358 ft 374 kts 268°
2026-04-26 12:00 59.66593 19.12283 25845 ft 371 kts 268°
2026-04-26 12:00 59.65895 19.07386 25347 ft 368 kts 268°
2026-04-26 12:00 59.65203 19.02541 24866 ft 365 kts 268°
2026-04-26 12:01 59.64526 18.97801 24200 ft 367 kts 268°
2026-04-26 12:01 59.63829 18.92867 23187 ft 377 kts 267°
2026-04-26 12:01 59.63112 18.87807 21960 ft 387 kts 266°
2026-04-26 12:01 59.62367 18.82603 20699 ft 398 kts 265°
2026-04-26 12:02 59.61601 18.77284 19390 ft 409 kts 264°
2026-04-26 12:02 59.60807 18.71820 18123 ft 417 kts 263°
2026-04-26 12:02 59.60000 18.66315 16985 ft 417 kts 262°
2026-04-26 12:02 59.59194 18.60858 16029 ft 413 kts 262°
2026-04-26 12:03 59.58394 18.55449 15126 ft 408 kts 261°
2026-04-26 12:03 59.57867 18.51887 14536 ft 404 kts 260°
2026-04-26 12:03 59.57176 18.47836 13863 ft 406 kts 252°
2026-04-26 12:03 59.55603 18.43077 12925 ft 413 kts 233°
2026-04-26 12:04 59.53573 18.39097 12107 ft 408 kts 228°
2026-04-26 12:04 59.51520 18.35307 11310 ft 400 kts 227°
2026-04-26 12:04 59.49519 18.31588 10548 ft 392 kts 227°
2026-04-26 12:04 59.47561 18.27918 9767 ft 385 kts 227°
2026-04-26 12:05 59.45641 18.24313 8806 ft 380 kts 227°
2026-04-26 12:05 59.43759 18.20799 7876 ft 376 kts 227°
2026-04-26 12:05 59.41857 18.17275 7343 ft 362 kts 227°
2026-04-26 12:05 59.40088 18.14034 7085 ft 343 kts 227°
2026-04-26 12:06 59.38390 18.10962 6967 ft 323 kts 227°
2026-04-26 12:06 59.36753 18.08033 6772 ft 306 kts 227°
2026-04-26 12:06 59.35225 18.05335 6616 ft 292 kts 227°
2026-04-26 12:06 59.33743 18.02744 6461 ft 279 kts 227°
2026-04-26 12:07 59.32326 18.00270 6326 ft 266 kts 230°
2026-04-26 12:07 59.31329 17.97460 6165 ft 241 kts 258°
2026-04-26 12:07 59.31207 17.94406 6023 ft 216 kts 287°
2026-04-26 12:07 59.31642 17.91703 5924 ft 202 kts 296°
2026-04-26 12:08 59.32159 17.89219 5795 ft 194 kts 297°
2026-04-26 12:08 59.32730 17.86870 5570 ft 187 kts 311°
2026-04-26 12:08 59.33298 17.85842 5401 ft 184 kts 328°
2026-04-26 12:08 59.34428 17.84724 5260 ft 175 kts 336°
2026-04-26 12:09 59.35509 17.83864 5136 ft 163 kts 337°
2026-04-26 12:09 59.36562 17.83043 4811 ft 163 kts 337°
2026-04-26 12:09 59.37675 17.82681 4427 ft 167 kts
2026-04-26 12:09 59.38806 17.83308 4098 ft 169 kts 14°
2026-04-26 12:10 59.39910 17.84138 4003 ft 169 kts 15°
2026-04-26 12:10 59.40938 17.84942 4009 ft 148 kts 15°
2026-04-26 12:10 59.41827 17.85681 4022 ft 132 kts 15°
2026-04-26 12:10 59.42655 17.86417 4015 ft 131 kts 20°
2026-04-26 12:11 59.43447 17.87307 4022 ft 131 kts 19°
2026-04-26 12:11 59.44245 17.88098 4029 ft 129 kts 18°
2026-04-26 12:11 59.45060 17.88873 4027 ft 132 kts 17°
2026-04-26 12:11 59.45913 17.89658 4017 ft 137 kts 17°
2026-04-26 12:12 59.46780 17.90456 4014 ft 138 kts 17°
2026-04-26 12:12 59.47649 17.91259 4019 ft 138 kts 17°
2026-04-26 12:12 59.48516 17.92059 4019 ft 138 kts 17°
2026-04-26 12:12 59.49099 17.92520 4003 ft 135 kts
2026-04-26 12:13 59.50410 17.92613 3434 ft 146 kts 355°
2026-04-26 12:13 59.51413 17.92849 3130 ft 150 kts
2026-04-26 12:13 59.52511 17.93152 2512 ft 167 kts 358°
2026-04-26 12:13 59.53710 17.93253 2077 ft 174 kts 359°
2026-04-26 12:14 59.54917 17.93178 1699 ft 174 kts 352°
2026-04-26 12:14 59.56114 17.92899 1385 ft 170 kts 359°
2026-04-26 12:14 59.57207 17.93250 1255 ft 154 kts
2026-04-26 12:14 59.58227 17.93602 924 ft 147 kts
2026-04-26 12:15 59.59204 17.93877 733 ft 133 kts
2026-04-26 12:15 59.60070 17.94254 592 ft 125 kts
2026-04-26 12:15 59.60970 17.94518 432 ft 130 kts 359°
2026-04-26 12:15 59.61827 17.94838 313 ft 118 kts
2026-04-26 12:16 59.62600 17.95141 261 ft 124 kts
2026-04-26 12:16 59.63365 17.95338 145 ft 91 kts 12°
2026-04-26 12:16 59.63684 17.95447 148 ft 31 kts 353°
2026-04-26 12:16 59.63882 17.95525 148 ft 29 kts 12°
2026-04-26 12:17 59.64086 17.95538 147 ft 29 kts 351°
2026-04-26 12:17 59.64215 17.95466 142 ft 0 kts 339°
2026-04-26 12:19 59.64269 17.95426 141 ft 15 kts 340°
2026-04-26 12:20 59.64333 17.95382 141 ft 0 kts 341°
2026-04-26 12:21 59.64347 17.95374 141 ft 9 kts 343°
2026-04-26 12:21 59.64451 17.95324 141 ft 16 kts 356°
2026-04-26 12:21 59.64557 17.95358 141 ft 16 kts 12°
2026-04-26 12:21 59.64666 17.95402 141 ft 16 kts 11°
2026-04-26 12:22 59.64781 17.95442 141 ft 18 kts 10°
2026-04-26 12:22 59.64907 17.95488 141 ft 19 kts 11°
2026-04-26 12:22 59.65034 17.95506 141 ft 19 kts 353°
2026-04-26 12:22 59.65161 17.95450 141 ft 19 kts 348°
2026-04-26 12:23 59.65294 17.95385 141 ft 20 kts 345°
2026-04-26 12:23 59.65435 17.95303 141 ft 22 kts 343°
2026-04-26 12:23 59.65585 17.95232 141 ft 23 kts 345°
2026-04-26 12:23 59.65728 17.95114 141 ft 22 kts 309°
2026-04-26 12:24 59.65729 17.94860 141 ft 19 kts 256°
2026-04-26 12:24 59.65699 17.94597 141 ft 20 kts 258°
2026-04-26 12:24 59.65663 17.94351 141 ft 18 kts 255°
2026-04-26 12:25 59.65597 17.93820 141 ft 22 kts 254°
2026-04-26 12:25 59.65558 17.93511 141 ft 24 kts 258°
2026-04-26 12:25 59.65526 17.93241 141 ft 9 kts 251°
2026-04-26 12:25 59.65504 17.93109 141 ft 11 kts 253°
2026-04-26 12:26 59.65484 17.92955 141 ft 12 kts 256°
2026-04-26 12:26 59.65454 17.92799 141 ft 13 kts 247°
2026-04-26 12:26 59.65404 17.92679 141 ft 8 kts 191°
2026-04-26 12:26 59.65361 17.92705 141 ft 6 kts 154°
2026-04-26 12:27 59.65354 17.92730 141 ft 1 kts 74°
2026-04-26 12:27 59.65360 17.92758 141 ft 3 kts 63°
2026-04-26 12:27 59.65375 17.92804 141 ft 4 kts 52°
2026-04-26 12:27 59.65395 17.92867 141 ft 6 kts 68°
2026-04-26 12:28 59.65385 17.92930 141 ft 5 kts 132°
2026-04-26 12:28 59.65372 17.92954 141 ft 1 kts 138°
2026-04-26 12:28 59.65371 17.92956 141 ft 0 kts 138°